This is the latest recevied weather packets stored in our database for station/object K9ABJ. If no packets are shown the sender has not sent any weather packets the latest 10 day(s).
| Time | Temp. | Humidity | Pressure | Rain* | Wind** | Luminosity | Snow |
|---|---|---|---|---|---|---|---|
| 1788004784 | 15° C | 95% | 1022.9 hPa | 0 mm | - | 45 W/m² | - |
| 1788004479 | 13.89° C | 95% | 1022.9 hPa | 0 mm | - | 42 W/m² | - |
| 1788004179 | 13.33° C | 95% | 1022.6 hPa | 0 mm | - | 18 W/m² | - |
| 1788003877 | 13.33° C | 95% | 1022.6 hPa | 0 mm | - | 13 W/m² | - |
| 1788003572 | 13.33° C | 95% | 1022.4 hPa | 0 mm | - | 11 W/m² | - |
| 1788003268 | 13.33° C | 95% | 1022.3 hPa | 0 mm | - | 9 W/m² | - |
| 1788002967 | 13.89° C | 95% | 1022.4 hPa | 0 mm | - | 12 W/m² | - |
| 1788002662 | 13.33° C | 95% | 1022.4 hPa | 0 mm | - | 9 W/m² | - |
| 1788002358 | 13.33° C | 95% | 1022.3 hPa | 0 mm | - | 5 W/m² | - |
| 1788002053 | 13.33° C | 95% | 1022.1 hPa | 0 mm | - | 2 W/m² | - |
| 1788001753 | 13.33° C | 95% | 1022.4 hPa | 0 mm | - | 0 W/m² | - |
| 1788001448 | 13.33° C | 95% | 1022 hPa | 0 mm | - | 0 W/m² | - |
| 1788001148 | 13.33° C | 95% | 1021.9 hPa | 0 mm | - | 0 W/m² | - |
| 1788000843 | 13.33° C | 95% | 1021.8 hPa | 0 mm | - | 0 W/m² | - |
| 1788000539 | 13.33° C | 95% | 1021.7 hPa | 0 mm | - | 0 W/m² | - |
| 1788000238 | 13.33° C | 95% | 1021.9 hPa | 0 mm | - | 0 W/m² | - |
| 1787999934 | 13.33° C | 95% | 1021.7 hPa | 0 mm | - | 0 W/m² | - |
| 1787999631 | 13.33° C | 95% | 1021.5 hPa | 0 mm | - | 0 W/m² | - |
| 1787999327 | 13.33° C | 95% | 1021.4 hPa | 0 mm | - | 0 W/m² | - |
| 1787999026 | 13.33° C | 95% | 1021.7 hPa | 0 mm | - | 0 W/m² | - |
| 1787998721 | 13.33° C | 95% | 1021.6 hPa | 0 mm | - | 0 W/m² | - |
| 1787998419 | 13.33° C | 95% | 1021.6 hPa | 0 mm | - | 0 W/m² | - |
| 1787998115 | 13.33° C | 95% | 1021.6 hPa | 0 mm | - | 0 W/m² | - |
| 1787997814 | 13.33° C | 95% | 1021.4 hPa | 0 mm | - | 0 W/m² | - |
| 1787997512 | 13.33° C | 95% | 1021.5 hPa | 0 mm | - | 0 W/m² | - |
* Rain latest hour (hover to see other rain measurements)
** Current wind speed in m/s (hover to see current wind gust speed)